Regional Weather Roundup
Issued by NWS

Home | Current Version | Previous Version | Text Only | Print | Product List | Glossary Off
Versions: 1 2 3 4 5 6 7 8 9 10 11 12 13 14 15 16 17 18 19 20 21 22 23 24 25 26 27 28 29 30 31 32 33 34 35 36 37 38 39 40 41 42 43 44 45 46 47 48 49 50

000
ASUS43 KMPX 031410
RWRMN
WEATHER ROUNDUP FOR MINNESOTA
NATIONAL WEATHER SERVICE TWIN CITIES/CHANHASSEN MN
900 AM CDT TUE MAY 03 2016


NOTE: "FAIR" INDICATES FEW OR NO CLOUDS BELOW 12,000 FEET WITH NO
SIGNIFICANT WEATHER AND/OR OBSTRUCTIONS TO VISIBILITY. N/A MEANS
CURRENT SKY AND/OR WEATHER CONDITIONS ARE NOT AVAILABLE.

MNZ060>063-068>070-031500-
   Twin Cities Metro

CITY           SKY/WX    TMP DP  RH WIND       PRES   REMARKS
TWIN CITIES    PTSUNNY   55  39  54 W8        29.92F
ST PAUL        SUNNY     57  41  55 CALM      29.92F
CRYSTAL        SUNNY     59  39  47 SW7       29.90F
BLAINE         PTSUNNY   59  39  47 MISG        N/A
EDEN PRAIRIE   SUNNY     54  41  61 SW5       29.92F
SOUTH ST PAUL  SUNNY     57  39  51 W6        29.91F
LAKE ELMO      FAIR      59  43  55 W10       29.91F
$$
MNZ001>005-007-008-013>017-022>024-027-028-031500-
   Northwest Minnesota

CITY           SKY/WX    TMP DP  RH WIND       PRES   REMARKS
BEMIDJI        MOSUNNY   56  37  48 W16G25    29.81F
HALLOCK        MOSUNNY   55  36  47 N22G29    29.85R
ROSEAU         PTSUNNY   59  39  47 N14       29.80R
WARROAD        MOSUNNY   57  41  54 N9        29.79S
THIEF RVR FALL CLOUDY    55  36  47 W16G25    29.83F
CROOKSTON      CLOUDY    59  39  47 NW16G26   29.85S
FOSSTON        MOSUNNY   55  37  50 SW16      29.84F
DETROIT LAKES  MOSUNNY   54  41  62 W17       29.90S
MOORHEAD       MOSUNNY   55  43  62 W10       29.91S
PARK RAPIDS    CLOUDY    59  38  45 W18       29.86F
MAHNOMEN       PTSUNNY   55  40  58 W16       29.86F
$$
MNZ006-009>011-018-025>026-031500-
   North Central Minnesota

CITY           SKY/WX    TMP DP  RH WIND       PRES   REMARKS
BAUDETTE       CLOUDY    57  38  48 NW17      29.76S
FLAG ISLAND    MOSUNNY   52  36  54 NW15      29.77R
INTL FALLS     CLOUDY    52  37  56 W8        29.72F
WASKISH        CLOUDY    54  43  66 W14G20    29.77S
BIG FORK       MOSUNNY   57  36  44 W8G21     29.75F
LONGVILLE      CLOUDY    57  36  44 SW9       29.83F
GRAND RAPIDS   CLOUDY    57  34  41 W14G21    29.80F
CRANE LAKE     LGT RAIN  54  37  54 CALM      29.73S
ORR            CLOUDY    54  34  47 W12       29.71F
COOK           CLOUDY    54  37  54 W7        29.74S
WALKER         PTSUNNY   58  37  46 W15G25    29.82F
$$
MNZ012-019>021-037-031500-
   Northeast Minnesota

CITY           SKY/WX    TMP DP  RH WIND       PRES   REMARKS
DULUTH         CLOUDY    58  34  40 W18       29.77F
ELY            CLOUDY    52  36  54 W12       29.72S
HIBBING        CLOUDY    53  34  48 W12       29.76F
EVELETH        CLOUDY    54  34  47 W15G21    29.76S
DULUTH HARBOR  CLOUDY    55  39  54 SW12      29.78F
TWO HARBORS    CLOUDY    59  41  51 W9G18     29.73F
SILVER BAY     CLOUDY    55  36  47 SW6       29.71F
GRAND MARAIS     N/A     40  36  86 W7        29.68F
G MARAIS ARPRT DRIZZLE   46  36  66 W7        29.69S
$$
MNZ029>031-032-039>041-046>048-054>057-064-031500-
   West Central Minnesota

CITY           SKY/WX    TMP DP  RH WIND       PRES   REMARKS
FERGUS FALLS   PTSUNNY   54  43  66 W14       29.91F
WHEATON        SUNNY     57  45  62 SW9       29.96S
MORRIS         MOSUNNY   57  43  58 W12       29.94F
ALEXANDRIA     SUNNY     55  40  56 W10       29.94F
ELBOW LAKE     FAIR      53  41  64 SW12      29.94F
WADENA         CLOUDY    55  39  54 W15       29.88F
GLENWOOD       MOSUNNY   54  43  66 W10       29.94F
APPLETON       CLOUDY    55  43  62 W10       29.95F
BENSON         CLOUDY    55  43  62 NW7       29.96S
ORTONVILLE     MOSUNNY   54  43  66 W3        29.96F
MADISON        CLOUDY    54  41  62 W8        29.97F
WILLMAR        FAIR      54  43  66 W10       29.96F
$$
MNZ033>034-036-042>043-049>051-058-059-031500-
   Central Minnesota

CITY           SKY/WX    TMP DP  RH WIND       PRES   REMARKS
ST CLOUD       CLOUDY    57  38  48 W14       29.90F
SAUK CENTRE    FAIR      55  41  58 W15       29.92F
PAYNESVILLE    CLOUDY    56  40  55 W10       29.94S
AITKIN         MOSUNNY   59  34  38 W9        29.83F
PINE RIVER     MOSUNNY   55  39  54 W9G17     29.88F
BRAINERD       MOSUNNY   56  38  50 W10G21    29.87F
STAPLES        CLOUDY    55  37  50 W14       29.88F
LONG PRAIRIE   FAIR      54  39  58 W10G16    29.92F
LITTLE FALLS   MOSUNNY   55  37  50 W13       29.89F
LITCHFIELD     MOSUNNY   57  43  58 W6        29.93F
BUFFALO        MOSUNNY   53  40  60 W8        29.94S
MAPLE LAKE     MOSUNNY   56  42  60 W7        29.93S
HUTCHINSON     MOSUNNY   54  42  63 W8        29.95F
$$
MNZ037-044-045-052-053-031500-
   East Central Minnesota

CITY           SKY/WX    TMP DP  RH WIND       PRES   REMARKS
PRINCETON        N/A     57  41  54 W8        29.90F
MORA           MOSUNNY   55  37  50 W6        29.89F
CAMBRIDGE      MOSUNNY   61  41  48 W8        29.87F
RUSH CITY      MOSUNNY   56  39  51 W7        29.88F
MOOSE LAKE     CLOUDY    57  34  41 W9        29.81F
HINCKLEY       FAIR      55  37  50 W8        29.86S
CLOQUET        CLOUDY    57  32  38 W12G17    29.79F
MCGREGOR       MOSUNNY   55  36  47 W9G17     29.83F
$$
MNZ071>073-080-081-089-090-097-098-031500-
   Southwest Minnesota

CITY           SKY/WX    TMP DP  RH WIND       PRES   REMARKS
MONTEVIDEO     CLOUDY    57  43  58 NW9       29.98F
GRANITE FALLS  MOSUNNY   58  43  58 W13       29.99S
CANBY          SUNNY     58  46  63 NW10      29.99F
MARSHALL       MOSUNNY   57  42  57 W14       29.99S
REDWOOD FALLS  SUNNY     57  41  55 W7        29.96F
OLIVIA         MOSUNNY   55  43  62 W7        29.95F
PIPESTONE      SUNNY     52  45  76 W5        30.01S
WINDOM         SUNNY     55  43  62 W9        30.00S
WORTHINGTON    SUNNY     55  43  63 W12       30.01F
JACKSON        SUNNY     57  39  51 W8        30.00S
TRACY          SUNNY     58  43  56 W7        29.99F
SLAYTON        SUNNY     55  41  60 W10       30.01S
$$
MNZ065>067-074>077-082>085-091>093-031500-
   South Central Minnesota

CITY           SKY/WX    TMP DP  RH WIND       PRES   REMARKS
MANKATO        SUNNY     55  41  58 W13       29.96F
NEW ULM        SUNNY     54  43  66 W9        29.96F
ST JAMES       SUNNY     54  39  58 W12       29.99S
FAIRMONT       SUNNY     55  39  54 W12       29.99S
GLENCOE        MOSUNNY   54  43  67 W8        29.94F
FARIBAULT      SUNNY     54  43  66 W8        29.96S
OWATONNA       SUNNY     55  43  62 W8        29.96F
WASECA         MOSUNNY   54  43  66 W9        29.98S
ALBERT LEA     SUNNY     55  43  62 W7        29.98S
$$
MNZ078>079-086>088-094>096-031500-
   Southeast Minnesota

CITY           SKY/WX    TMP DP  RH WIND       PRES   REMARKS
ROCHESTER      SUNNY     57  44  62 W12       29.97S
RED WING       SUNNY     57  39  51 W6        29.91F
STANTON        SUNNY     57  41  55 SW6       29.92F
DODGE CENTER   SUNNY     57  43  58 W12       29.96S
WINONA         SUNNY     55  43  62 CALM      29.94F
AUSTIN         SUNNY     55  41  58 W7        29.97S
PRESTON        SUNNY     55  42  60 W10       29.97F
$$
ABBREVIATIONS USED IN REMARKS
   TC - TEMPERATURES IN CELSIUS
  WCI - WIND CHILL INDEX
   HX - HEAT INDEX
  VSB - VISIBILITY
$$




USA.gov is the U.S. government's official web portal to all federal, state and local government web resources and services.